CAPE
0 8 3 27 0 1 3 27 82 58 107 270 486 617 554 511 560 899 1149 1573 1784 1484 1324 1241 1279 896 1064 1006 811 652 634 526 653 339 412 704 920 1279 765 815 617 384 327 286
4 29 2 2 0 2 19 128 115 88 104 325 401 438 465 465 648 841 899 1194 1411 1377 1341 1004 835 840 628 443 367 281 128 169 1 0 36 1 5 241 186 557 515 209 76 49
0 2 0 0 23 26 70 32 26 179 93 266 276 107 204 534 646 791 997 1133 1207 1053 833 755 579 443 251 251 146 50 11 8 10 90 8 13 11 123 20 39 41 43 46 45
57 0 0 16 20 0 21 0 4 22 135 57 261 229 59 351 664 777 872 925 706 405 473 418 294 205 28 0 0 3 11 16 15 29 28 52 10 5 6 8 11 16 31 43
35 0 3 27 3 0 2 6 55 78 156 113 3 62 103 181 584 622 581 464 378 281 220 145 33 5 0 0 0 7 22 33 33 37 31 10 12 11 13 13 42 123 64 64
25 11 14 1 0 0 2 160 254 324 255 151 147 463 262 65 518 560 496 399 281 198 144 29 1 0 0 0 2 14 24 34 38 36 35 35 32 36 31 29 28 43 59 71
3 30 0 0 39 135 144 159 242 365 380 147 283 148 635 352 397 520 507 407 263 159 48 11 1 0 0 4 10 9 23 32 37 36 34 28 33 38 57 53 49 122 53 64
59 29 27 0 1 3 0 106 254 229 137 77 159 186 549 467 556 429 413 410 256 131 43 9 1 0 0 8 15 18 18 28 19 54 28 41 44 43 56 43 72 54 81 72
99 110 12 0 0 0 4 227 132 83 201 228 297 379 373 523 511 383 379 355 227 133 49 1 1 1 4 8 27 20 25 14 21 26 33 39 60 62 41 57 92 60 195 109
46 102 5 6 0 83 9 0 19 307 229 97 111 499 352 539 589 456 424 367 258 130 52 3 0 0 5 6 13 14 19 16 20 17 36 19 68 36 52 64 79 187 282 281
32 7 56 0 94 1 47 232 73 113 453 187 174 509 247 536 687 493 460 230 285 100 37 1 0 1 3 1 3 11 17 18 9 22 39 25 16 22 67 82 91 68 131 319
129 45 64 86 38 0 0 0 26 107 150 195 186 452 368 437 607 516 351 199 226 115 30 1 0 1 2 0 3 9 16 7 9 19 19 19 37 60 68 119 107 145 135 205
1 21 72 155 160 59 0 0 0 15 431 261 362 553 406 462 514 425 246 194 172 78 27 0 0 0 1 1 3 7 10 4 10 22 31 20 41 76 109 140 125 55 61 69
376 131 55 70 5 0 4 0 3 46 388 290 337 465 569 518 519 443 305 143 133 39 0 0 0 0 0 1 4 10 9 6 11 20 21 48 45 75 68 91 69 35 31 36
385 41 11 7 0 0 1 1 5 20 44 96 240 162 504 690 513 524 376 163 119 29 0 0 0 0 0 0 3 10 11 13 16 21 23 24 41 59 84 99 101 87 48 67
849 136 48 30 6 0 1 3 4 6 7 72 110 560 449 432 494 507 292 143 129 1 0 0 0 0 0 1 1 11 10 14 21 14 17 25 29 15 57 94 77 90 17 48
196 296 135 114 87 0 13 42 3 0 28 117 302 458 297 284 362 335 237 148 62 0 0 0 0 0 0 1 2 10 7 14 17 17 12 15 15 24 28 71 64 70 53 92
312 390 178 106 50 14 294 75 0 4 88 133 154 201 88 141 232 150 87 203 32 0 0 0 0 0 0 0 1 8 4 13 10 7 10 13 8 24 32 47 60 73 78 111
329 359 173 45 55 77 28 102 18 96 509 332 22 22 1 38 97 86 72 51 0 0 0 0 0 0 0 0 2 5 4 8 2 4 9 8 4 13 14 22 66 57 100 142
426 469 149 67 44 30 511 98 74 77 136 100 1 0 2 30 31 443 120 12 0 0 0 0 0 0 0 0 3 4 3 4 1 2 7 9 4 17 29 32 23 78 72 62
270 167 76 69 97 77 319 149 57 4 287 0 0 0 0 5 551 262 59 3 0 0 0 0 0 0 0 0 2 4 0 2 0 3 7 10 10 24 28 41 41 46 99 58
189 158 62 42 35 41 259 56 0 211 3 0 0 0 0 125 127 27 0 0 0 0 0 0 0 0 0 0 0 4 0 0 0 4 8 13 24 29 31 53 38 38 51 69
51 106 657 191 297 620 220 687 1060 109 12 8 0 0 0 5 13 2 0 0 0 0 0 0 0 0 0 0 0 1 0 0 1 4 7 19 38 20 21 38 40 70 38 103
209 412 53 16 39 270 369 317 383 0 62 48 21 0 0 0 4 0 0 0 0 0 0 0 0 0 2 0 1 0 0 0 0 4 7 17 20 14 86 34 27 38 76 28
201 378 123 71 72 220 292 334 205 8 4 61 25 0 0 0 0 0 0 14 0 0 0 0 0 0 0 0 1 1 0 0 2 7 12 29 24 36 59 61 58 44 40 1
15 11 120 201 477 320 238 250 211 112 32 77 13 0 0 0 0 0 0 19 2 0 0 0 0 0 0 0 0 0 0 0 1 7 15 5 5 21 54 33 50 11 6 0
CIN
-0 -24 -22 -2 -0 -0 -0 -1 -0 -1 -4 -0 -0 -0 -0 -3 -0 -1 -0 -0 -0 -0 -0 -0 -0 -1 -5 -18 -35 -52 -48 -65 -32 -27 -16 -0 -0 -0 -0 -0 -0 -2 -2 -10
-0 -4 -18 -13 -0 -0 -0 -15 -15 -12 -11 -0 -0 -0 -0 -0 -1 -0 -0 -0 -0 -0 -0 -3 -1 -1 -30 -66 -72 -93 -133 -141 -32 -0 -62 -0 -0 -1 -18 -7 -8 -59 -100 -20
-9 -3 -0 -0 -0 -37 -17 -4 -12 -0 -11 -0 -51 -147 -0 -0 -0 -1 -0 -0 -0 -0 -1 -0 -8 -19 -46 -74 -111 -172 -71 -0 -0 -50 -0 -0 -0 -0 -0 -0 -0 -0 -2 -1
-0 -0 -0 -0 -2 -0 -6 -0 -55 -19 -5 -65 -0 -0 -192 -3 -0 -0 -0 -0 -0 -11 -11 -11 -14 -37 -135 -0 -0 -0 -0 -0 -0 -0 -0 -37 -0 -0 -0 -0 -0 -0 -0 -0
-1 -0 -3 -8 -19 -0 -4 -31 -5 -0 -0 -18 -142 -90 -82 -69 -0 -0 -3 -17 -22 -36 -28 -12 -70 -168 -0 -0 -0 -0 -0 -0 -0 -0 -0 -0 -0 -0 -0 -0 -0 -0 -0 -0
-1 -1 -5 -1 -0 -0 -42 -0 -1 -117 -1 -13 -100 -21 -29 -86 -3 -0 -0 -18 -31 -18 -15 -66 -0 -0 -0 -0 -0 -0 -0 -0 -0 -0 -0 -0 -0 -0 -0 -0 -0 -0 -0 -0
-0 -0 -0 -0 -0 -1 -1 -5 -3 -59 -3 -25 -0 -1 -0 -9 -18 -4 -1 -4 -18 -9 -32 -97 -0 -0 -0 -0 -0 -0 -0 -0 -0 -0 -0 -0 -0 -0 -0 -0 -0 -8 -0 -0
-0 -2 -0 -0 -0 -4 -0 -5 -0 -0 -0 -0 -26 -12 -18 -31 -36 -30 -37 -26 -29 -25 -45 -140 -0 -0 -0 -0 -0 -0 -0 -0 -7 -1 -0 -0 -0 -0 -0 -0 -0 -0 -0 -1
-0 -0 -23 -0 -0 -0 -3 -0 -16 -15 -3 -0 -18 -4 -12 -15 -30 -33 -22 -26 -29 -26 -78 -0 -0 -0 -0 -0 -0 -0 -0 -8 -4 -0 -0 -0 -0 -0 -0 -0 -0 -0 -2 -12
-1 -0 -4 -12 -0 -17 -6 -0 -25 -0 -0 -1 -28 -28 -121 -0 -0 -1 -5 -2 -8 -20 -69 -103 -0 -0 -0 -0 -0 -0 -0 -10 -0 -0 -0 -3 -0 -0 -0 -0 -0 -3 -0 -0
-0 -10 -0 -0 -1 -0 -1 -2 -13 -14 -0 -0 -0 -0 -16 -0 -0 -4 -0 -6 -0 -11 -63 -0 -0 -0 -0 -0 -0 -0 -0 -0 -0 -0 -9 -4 -3 -1 -0 -0 -1 -5 -5 -0
-2 -5 -1 -2 -19 -0 -0 -0 -52 -13 -0 -0 -0 -4 -7 -1 -0 -10 -8 -16 -5 -37 -82 -0 -0 -0 -0 -0 -0 -0 -0 -0 -0 -0 -22 -1 -1 -0 -0 -1 -0 -5 -0 -0
-0 -0 -0 -1 -2 -28 -0 -0 -9 -102 -4 -24 -0 -1 -4 -24 -14 -14 -7 -24 -24 -40 -73 -0 -0 -0 -0 -0 -0 -0 -0 -0 -0 -0 -0 -4 -1 -0 -0 -0 -0 -0 -0 -10
-77 -1 -1 -1 -0 -0 -0 -4 -58 -41 -0 -2 -1 -1 -3 -1 -0 -0 -9 -25 -1 -17 -0 -0 -0 -0 -0 -0 -0 -0 -0 -0 -0 -0 -1 -2 -1 -1 -0 -0 -0 -1 -0 -0
-12 -0 -1 -0 -0 -0 -0 -0 -9 -35 -18 -3 -0 -0 -0 -0 -1 -0 -3 -9 -2 -31 -0 -0 -0 -0 -0 -0 -0 -0 -0 -0 -0 -0 -0 -0 -3 -0 -2 -0 -1 -0 -0 -0
-10 -0 -2 -5 -17 -0 -0 -68 -48 -54 -54 -3 -0 -9 -0 -1 -0 -1 -0 -16 -9 -11 -0 -0 -0 -0 -0 -0 -0 -0 -0 -0 -0 -0 -0 -0 -0 -6 -0 -4 -0 -0 -0 -0
-7 -1 -1 -0 -1 -0 -12 -11 -27 -0 -28 -3 -0 -1 -3 -0 -0 -0 -0 -17 -48 -0 -0 -0 -0 -0 -0 -0 -0 -0 -0 -0 -0 -0 -0 -0 -0 -0 -0 -3 -0 -0 -1 -1
-4 -6 -0 -0 -2 -28 -8 -38 -0 -28 -6 -0 -2 -0 -5 -0 -0 -0 -12 -0 -67 -0 -0 -0 -0 -0 -0 -0 -0 -0 -0 -0 -0 -0 -0 -0 -0 -0 -0 -0 -0 -0 -0 -0
-1 -2 -0 -0 -7 -1 -25 -65 -72 -11 -1 -3 -14 -30 -9 -19 -20 -0 -6 -32 -10 -0 -0 -0 -0 -0 -0 -0 -0 -0 -0 -0 -0 -0 -0 -0 -0 -0 -0 -0 -0 -0 -0 -0
-4 -6 -0 -8 -2 -7 -6 -58 -50 -26 -1 -19 -24 -0 -0 -30 -21 -1 -27 -37 -0 -0 -0 -0 -0 -0 -0 -0 -0 -0 -0 -0 -0 -0 -0 -0 -0 -0 -0 -0 -0 -0 -0 -0
-0 -2 -4 -6 -1 -1 -10 -25 -44 -5 -13 -0 -0 -0 -0 -2 -2 -17 -13 -25 -0 -0 -0 -0 -0 -0 -0 -0 -0 -0 -0 -0 -0 -0 -0 -0 -0 -0 -0 -0 -0 -0 -1 -0
-0 -0 -4 -17 -21 -1 -20 -36 -0 -32 -48 -0 -0 -0 -0 -10 -7 -29 -0 -0 -0 -0 -0 -0 -0 -0 -0 -0 -0 -0 -0 -0 -0 -0 -0 -0 -0 -0 -0 -0 -0 -0 -0 -0
-0 -5 -0 -0 -0 -9 -11 -8 -12 -35 -81 -86 -54 -0 -0 -24 -42 -0 -0 -0 -0 -0 -0 -0 -0 -0 -0 -0 -0 -0 -0 -0 -0 -0 -0 -0 -1 -0 -0 -1 -0 -5 -0 -1
-1 -10 -5 -1 -2 -5 -5 -12 -15 -0 -33 -27 -47 -27 -0 -0 -10 -0 -0 -5 -0 -0 -0 -0 -0 -0 -0 -0 -0 -0 -0 -0 -0 -0 -0 -0 -2 -2 -1 -3 -0 -0 -2 -1
-2 -12 -0 -1 -0 -1 -2 -1 -6 -8 -27 -21 -34 -0 -0 -0 -0 -0 -0 -77 -0 -0 -0 -0 -0 -0 -0 -0 -0 -0 -0 -0 -0 -0 -0 -0 -0 -5 -3 -2 -1 -0 -0 -0
-0 -0 -0 -0 -6 -1 -2 -1 -1 -8 -25 -20 -39 -0 -0 -0 -0 -0 -0 -68 -53 -0 -0 -0 -0 -0 -0 -0 -0 -0 -0 -0 -0 -0 -0 -0 -0 -0 -3 -0 -3 -26 -4 -0
Wind_Speed
nan nan nan nan nan nan nan nan nan nan 7 9 16 21 18 16 26 29 31 30 28 29 33 39 21 21 20 21 21 21 23 21 23 26 27 30 32 34 37 40 40 39 40 41
nan nan nan nan nan nan nan 36 26 nan 19 9 16 16 17 22 24 27 30 34 32 39 39 36 23 23 22 24 25 27 26 27 nan nan nan nan nan 37 37 44 48 44 nan nan
nan nan nan nan nan nan nan nan nan 11 nan 1 29 10 8 21 28 29 33 34 34 36 39 38 27 25 25 28 29 nan nan nan nan nan nan nan nan 38 nan nan nan nan nan nan
nan nan nan nan nan nan nan nan nan nan 15 nan 30 29 nan 2 35 30 36 34 39 38 41 34 23 23 nan nan nan nan nan nan nan nan nan nan nan nan nan nan nan nan nan nan
nan nan nan nan nan nan nan nan nan nan 12 25 nan nan 23 19 32 38 37 34 34 34 36 26 nan nan nan nan nan nan nan nan nan nan nan nan nan nan nan nan nan 35 nan nan
nan nan nan nan nan nan nan 8 9 20 7 29 30 28 41 nan 36 40 34 27 28 34 38 nan nan nan nan nan nan nan nan nan nan nan nan nan nan nan nan nan nan nan nan nan
nan nan nan nan nan 14 19 4 20 26 14 22 22 12 34 31 30 36 31 29 28 31 nan nan nan nan nan nan nan nan nan nan nan nan nan nan nan nan nan nan nan 28 nan nan
nan nan nan nan nan nan nan 5 3 11 8 nan 37 16 29 39 36 37 30 30 31 29 nan nan nan nan nan nan nan nan nan nan nan nan nan nan nan nan nan nan nan nan nan nan
nan 23 nan nan nan nan nan 2 18 nan 18 7 22 26 44 31 39 41 33 33 33 31 nan nan nan nan nan nan nan nan nan nan nan nan nan nan nan nan nan nan nan nan 28 19
nan 7 nan nan nan nan nan nan nan 12 2 nan 27 37 37 37 42 36 34 32 32 28 nan nan nan nan nan nan nan nan nan nan nan nan nan nan nan nan nan nan nan 32 23 13
nan nan nan nan nan nan nan 10 nan 5 2 3 1 29 28 38 44 37 34 31 35 30 nan nan nan nan nan nan nan nan nan nan nan nan nan nan nan nan nan nan nan nan 19 14
14 nan nan nan nan nan nan nan nan 2 10 8 8 31 27 38 40 37 36 32 34 25 nan nan nan nan nan nan nan nan nan nan nan nan nan nan nan nan nan 36 32 25 19 12
nan nan nan 7 11 nan nan nan nan nan 10 13 9 23 28 31 36 36 35 36 32 nan nan nan nan nan nan nan nan nan nan nan nan nan nan nan nan nan 31 32 28 nan nan nan
12 13 nan nan nan nan nan nan nan nan 9 7 15 26 34 34 35 37 38 34 19 nan nan nan nan nan nan nan nan nan nan nan nan nan nan nan nan nan nan nan nan nan nan nan
9 nan nan nan nan nan nan nan nan nan nan nan 15 5 25 40 39 40 34 23 12 nan nan nan nan nan nan nan nan nan nan nan nan nan nan nan nan nan nan nan 27 nan nan nan
9 6 nan nan nan nan nan nan nan nan nan nan 13 22 22 28 36 37 27 18 14 nan nan nan nan nan nan nan nan nan nan nan nan nan nan nan nan nan nan nan nan nan nan nan
7 11 5 6 nan nan nan nan nan nan nan 7 2 20 22 27 36 32 21 17 nan nan nan nan nan nan nan nan nan nan nan nan nan nan nan nan nan nan nan nan nan nan nan nan
12 10 4 4 nan nan 22 nan nan nan nan 11 14 17 nan 27 36 26 nan 19 nan nan nan nan nan nan nan nan nan nan nan nan nan nan nan nan nan nan nan nan nan nan nan 18
12 9 10 nan nan nan nan 14 nan nan 21 13 nan nan nan nan nan nan nan nan nan nan nan nan nan nan nan nan nan nan nan nan nan nan nan nan nan nan nan nan nan nan 19 21
17 10 10 nan nan nan 31 nan nan nan 19 18 nan nan nan nan nan 25 20 nan nan nan nan nan nan nan nan nan nan nan nan nan nan nan nan nan nan nan nan nan nan nan nan nan
15 10 nan nan nan nan 34 23 nan nan 23 nan nan nan nan nan 26 27 nan nan nan nan nan nan nan nan nan nan nan nan nan nan nan nan nan nan nan nan nan nan nan nan nan nan
13 11 nan nan nan nan 31 nan nan 24 nan nan nan nan nan 26 29 nan nan nan nan nan nan nan nan nan nan nan nan nan nan nan nan nan nan nan nan nan nan nan nan nan nan nan
nan 19 27 24 27 26 24 21 29 25 nan nan nan nan nan nan nan nan nan nan nan nan nan nan nan nan nan nan nan nan nan nan nan nan nan nan nan nan nan nan nan nan nan 28
21 22 nan nan nan 24 26 23 28 nan nan nan nan nan nan nan nan nan nan nan nan nan nan nan nan nan nan nan nan nan nan nan nan nan nan nan nan nan nan nan nan nan nan nan
28 24 18 nan nan 27 23 26 26 nan nan nan nan nan nan nan nan nan nan nan nan nan nan nan nan nan nan nan nan nan nan nan nan nan nan nan nan nan nan nan nan nan nan nan
nan nan 17 21 32 21 33 24 26 27 nan nan nan nan nan nan nan nan nan nan nan nan nan nan nan nan nan nan nan nan nan nan nan nan nan nan nan nan nan nan nan nan nan nan
Wind_Direction
nan nan nan nan nan nan nan nan nan nan 320 287 290 303 301 302 311 311 315 308 311 313 324 332 317 300 306 305 308 315 314 312 320 316 309 305 303 303 302 300 295 295 292 290
nan nan nan nan nan nan nan 246 152 nan 347 320 302 294 300 305 309 304 309 307 314 327 328 324 304 303 307 310 319 321 321 315 nan nan nan nan nan 311 310 311 306 299 nan nan
nan nan nan nan nan nan nan nan nan 283 nan 204 283 265 171 302 310 309 310 315 309 307 315 317 310 309 312 318 325 nan nan nan nan nan nan nan nan 316 nan nan nan nan nan nan
nan nan nan nan nan nan nan nan nan nan 8 nan 359 311 nan 293 323 322 315 310 306 310 313 316 307 306 nan nan nan nan nan nan nan nan nan nan nan nan nan nan nan nan nan nan
nan nan nan nan nan nan nan nan nan nan 41 294 nan nan 322 314 313 334 319 313 310 309 319 312 nan nan nan nan nan nan nan nan nan nan nan nan nan nan nan nan nan 316 nan nan
nan nan nan nan nan nan nan 343 292 208 213 310 18 31 313 nan 334 324 320 315 307 312 321 nan nan nan nan nan nan nan nan nan nan nan nan nan nan nan nan nan nan nan nan nan
nan nan nan nan nan 195 62 292 315 3 6 357 340 329 283 310 301 305 312 327 317 315 nan nan nan nan nan nan nan nan nan nan nan nan nan nan nan nan nan nan nan 322 nan nan
nan nan nan nan nan nan nan 241 167 208 228 nan 262 265 321 306 307 312 304 314 317 306 nan nan nan nan nan nan nan nan nan nan nan nan nan nan nan nan nan nan nan nan nan nan
nan 305 nan nan nan nan nan 215 235 nan 46 10 331 304 295 290 324 323 313 316 315 310 nan nan nan nan nan nan nan nan nan nan nan nan nan nan nan nan nan nan nan nan 333 334
nan 321 nan nan nan nan nan nan nan 20 309 nan 345 278 304 325 321 320 321 322 320 320 nan nan nan nan nan nan nan nan nan nan nan nan nan nan nan nan nan nan nan 359 352 2
nan nan nan nan nan nan nan 337 nan 6 344 249 34 298 287 310 321 324 319 317 318 326 nan nan nan nan nan nan nan nan nan nan nan nan nan nan nan nan nan nan nan nan 26 37
234 nan nan nan nan nan nan nan nan 160 233 268 10 284 288 306 311 318 318 316 304 316 nan nan nan nan nan nan nan nan nan nan nan nan nan nan nan nan nan 11 13 14 27 29
nan nan nan 208 328 nan nan nan nan nan 24 291 32 272 302 313 318 324 323 312 319 nan nan nan nan nan nan nan nan nan nan nan nan nan nan nan nan nan 17 9 9 nan nan nan
206 206 nan nan nan nan nan nan nan nan 45 231 259 298 314 327 333 334 330 334 322 nan nan nan nan nan nan nan nan nan nan nan nan nan nan nan nan nan nan nan nan nan nan nan
208 nan nan nan nan nan nan nan nan nan nan nan 250 287 299 327 335 337 337 345 331 nan nan nan nan nan nan nan nan nan nan nan nan nan nan nan nan nan nan nan 7 nan nan nan
193 224 nan nan nan nan nan nan nan nan nan nan 358 277 298 311 321 328 343 344 329 nan nan nan nan nan nan nan nan nan nan nan nan nan nan nan nan nan nan nan nan nan nan nan
275 261 310 66 nan nan nan nan nan nan nan 328 312 289 308 320 326 336 337 339 nan nan nan nan nan nan nan nan nan nan nan nan nan nan nan nan nan nan nan nan nan nan nan nan
277 272 237 226 nan nan 268 nan nan nan nan 337 346 315 nan 334 335 347 nan 313 nan nan nan nan nan nan nan nan nan nan nan nan nan nan nan nan nan nan nan nan nan nan nan 12
268 277 265 nan nan nan nan 298 nan nan 305 318 nan nan nan nan nan nan nan nan nan nan nan nan nan nan nan nan nan nan nan nan nan nan nan nan nan nan nan nan nan nan 15 17
260 248 255 nan nan nan 265 nan nan nan 322 318 nan nan nan nan nan 328 315 nan nan nan nan nan nan nan nan nan nan nan nan nan nan nan nan nan nan nan nan nan nan nan nan nan
274 245 nan nan nan nan 282 298 nan nan 306 nan nan nan nan nan 313 315 nan nan nan nan nan nan nan nan nan nan nan nan nan nan nan nan nan nan nan nan nan nan nan nan nan nan
248 258 nan nan nan nan 284 nan nan 292 nan nan nan nan nan 321 330 nan nan nan nan nan nan nan nan nan nan nan nan nan nan nan nan nan nan nan nan nan nan nan nan nan nan nan
nan 208 209 223 233 273 298 277 292 305 nan nan nan nan nan nan nan nan nan nan nan nan nan nan nan nan nan nan nan nan nan nan nan nan nan nan nan nan nan nan nan nan nan 14
275 254 nan nan nan 278 294 286 297 nan nan nan nan nan nan nan nan nan nan nan nan nan nan nan nan nan nan nan nan nan nan nan nan nan nan nan nan nan nan nan nan nan nan nan
231 266 255 nan nan 276 289 297 298 nan nan nan nan nan nan nan nan nan nan nan nan nan nan nan nan nan nan nan nan nan nan nan nan nan nan nan nan nan nan nan nan nan nan nan
nan nan 270 241 245 265 260 292 299 307 nan nan nan nan nan nan nan nan nan nan nan nan nan nan nan nan nan nan nan nan nan nan nan nan nan nan nan nan nan nan nan nan nan nan